Regional Weather Roundup
Issued by NWS Sioux Falls, SD

Home | Current Version | Previous Version | Text Only | Print | Product List | Glossary On
Versions: 1 2 3 4 5 6 7 8 9 10 11 12 13 14 15 16 17 18 19 20 21 22 23 24 25 26 27 28 29 30 31 32 33 34 35 36 37 38 39 40 41 42 43 44 45 46 47 48 49 50
000
ASUS43 KFSD 231110
RWRFSD

WEATHER ROUNDUP FOR SE SOUTH DAKOTA/SW MINNESOTA/NW IOWA
NATIONAL WEATHER SERVICE SIOUX FALLS SD
600 AM CDT WED MAY 23 2018

NOTE: "FAIR" INDICATES FEW OR NO CLOUDS BELOW 12,000 FEET WITH NO
SIGNIFICANT WEATHER AND OR OBSTRUCTIONS TO VISIBILITY.


SDZ038>040-050-052>070-231200-
SOUTHEAST SOUTH DAKOTA

CITY           SKY/WX    TMP DP  RH WIND       PRES   REMARKS
BROOKINGS      CLOUDY    65  61  87 SE16      30.00R
CHAMBERLAIN    MOCLDY    67  67 100 E5        29.91R
HURON          CLOUDY    64  62  93 E6        29.93F
MADISON        PTSUNNY   64  64 100 SE12G17   29.99S
MITCHELL       CLOUDY    64  62  93 E5        29.94S
SIOUX FALLS    CLOUDY    65  63  93 SE10      29.99S
WINNER         LGT RAIN  69  61  75 E6        29.89R
YANKTON        PTCLDY    64  62  93 E7        29.96S
$$

MNZ071-072-080-081-089-090-097-098-231200-
SOUTHWEST MINNESOTA

CITY           SKY/WX    TMP DP  RH WIND       PRES   REMARKS
FAIRMONT       LGT RAIN  63  61  94 S10       30.10F
JACKSON        CLOUDY    63  57  82 SE10      30.09F
LUVERNE        CLEAR     64  57  77 SE10G17   30.03S
MARSHALL       LGT RAIN  64  63  94 SE13      30.02S
MONTEVIDEO     CLOUDY    63  59  88 S9        30.03R
PIPESTONE      PTCLDY    64  61  88 SE14      30.02S
REDWOOD FALLS  CLOUDY    63  62  97 S10       30.05R
TRACY          TSTM      65  63  93 SE16      30.02F
WINDOM         CLOUDY    64  46  52 SE7       30.07R
WORTHINGTON    PTCLDY    65  57  75 E22       30.05F
$$

IAZ001>003-012>014-020>022-031-032-NEZ013-014-SDZ071-231200-
NORTHWEST IOWA

CITY           SKY/WX    TMP DP  RH WIND       PRES   REMARKS
CHEROKEE       PTCLDY    64  63  96 E7        30.05R
DENISON        CLEAR     64  63  94 CALM      30.06S
ESTHERVILLE    LGT RAIN  62  59  90 SE10      30.09R
ORANGE CITY    CLEAR     64  63  94 E8        30.04R
SHELDON        PTCLDY    66  64  94 SE15      30.03S
SIOUX CITY     CLEAR     63  61  93 E8        30.01R
SPENCER        CLOUDY    66  58  75 E14       30.08R
STORM LAKE     PTCLDY    63  63 100 SE10      30.07R
$$

ABBREVIATIONS USED IN REMARKS
   TC - TEMPERATURE IN CELSIUS
  WCI - WIND CHILL INDEX
   HX - HEAT INDEX
  VSB - VISIBILITY





USA.gov is the U.S. government's official web portal to all federal, state and local government web resources and services.